GW0245 Weather Reports


Display with metric or nautical units.
time (UTC)temp
F
wind
direction
speed
MPH
gust
MPH
rain 1hr
in
rain 24hr
in
rain mn
in
humidity
%
barometer
mb
20260904113106 66 0 0.0 3.0 0.00 0.00 0.00 79 1016.5
20260904111606 66 0 0.0 0.0 0.00 0.00 0.00 79 1016.5
20260904104601 66 0 0.0 2.0 0.00 0.00 0.00 77 1016.2
20260904103103 67 244 0.0 1.0 0.00 0.00 0.00 75 1016.2
20260904101611 68 0 0.0 1.0 0.00 0.00 0.00 75 1016.1
20260904100110 68 0 0.0 3.0 0.00 0.00 0.00 75 1015.9
20260904094609 68 0 0.0 2.0 0.00 0.00 0.00 74 1015.8
20260904093117 69 0 0.0 2.0 0.00 0.00 0.00 72 1015.8
20260904091615 70 0 0.0 0.0 0.00 0.00 0.00 70 1015.9
20260904090106 71 0 0.0 1.0 0.00 0.00 0.00 69 1015.8
20260904084606 71 186 0.0 1.0 0.00 0.00 0.00 68 1015.9
20260904083105 72 0 0.0 1.0 0.00 0.00 0.00 66 1015.8
20260904081611 72 0 0.0 5.0 0.00 0.00 0.00 65 1015.9
20260904080104 72 247 1.0 4.0 0.00 0.00 0.00 65 1015.9
20260904074600 72 0 0.0 2.0 0.00 0.00 0.00 65 1015.9
20260904073109 72 0 0.0 3.0 0.00 0.00 0.00 65 1015.9
20260904071606 72 0 0.0 2.0 0.00 0.00 0.00 63 1015.9
20260904070106 73 0 0.0 4.0 0.00 0.00 0.00 62 1015.8
20260904064605 73 219 0.0 3.0 0.00 0.00 0.00 60 1015.7
20260904063107 74 227 0.0 2.0 0.00 0.00 0.00 59 1015.6
20260904061605 73 0 0.0 3.0 0.00 0.00 0.00 59 1015.6
20260904060125 73 220 0.0 1.0 0.00 0.00 0.00 59 1015.7
20260904054636 74 0 0.0 2.0 0.00 0.00 0.00 59 1015.7
20260904053102 74 0 0.0 1.0 0.00 0.00 0.00 59 1015.7
20260904051607 74 92 0.0 2.0 0.00 0.00 0.00 58 1015.7
20260904044559 75 0 0.0 3.0 0.00 0.00 0.00 56 1015.7
20260904043107 75 0 0.0 2.0 0.00 0.00 0.00 55 1015.7
20260904041607 76 250 1.0 5.0 0.00 0.00 0.00 54 1015.6
20260904040109 75 237 1.0 4.0 0.00 0.00 0.00 54 1015.4
20260904034603 75 232 0.0 4.0 0.00 0.00 0.00 54 1015.5
20260904033102 75 0 0.0 2.0 0.00 0.00 0.00 54 1015.3
20260904031605 76 241 0.0 2.0 0.00 0.00 0.00 52 1015.2
20260904030104 77 0 0.0 3.0 0.00 0.00 0.00 50 1015.0
20260904024604 78 218 0.0 3.0 0.00 0.00 0.00 48 1015.0
20260904023107 78 198 0.0 4.0 0.00 0.00 0.00 48 1014.9
20260904021608 78 0 0.0 2.0 0.00 0.00 0.00 48 1014.7
20260904020106 80 192 0.0 1.0 0.00 0.00 0.00 45 1014.6
20260904014620 82 146 0.0 6.0 0.00 0.00 0.00 42 1014.6
20260904013122 83 147 2.0 7.0 0.00 0.00 0.00 40 1014.5
20260904011606 84 121 2.0 7.0 0.00 0.00 0.00 38 1014.4
20260904010115 85 148 2.0 6.0 0.00 0.00 0.00 36 1014.5
20260904004623 86 152 3.0 14.0 0.00 0.00 0.00 37 1014.5
20260904003133 86 130 2.0 8.0 0.00 0.00 0.00 38 1014.5
20260904001602 87 171 2.0 10.0 0.00 0.00 0.00 38 1014.6
20260904000103 87 225 3.0 10.0 0.00 0.00 0.00 37 1014.6
20260903234601 88 178 1.0 11.0 0.00 0.00 0.00 37 1014.6
20260903233107 87 157 4.0 13.0 0.00 0.00 0.00 37 1014.6
20260903231611 89 120 4.0 11.0 0.00 0.00 0.00 35 1014.6
20260903230106 89 177 6.0 15.0 0.00 0.00 0.00 35 1014.8
20260903224603 89 189 4.0 16.0 0.00 0.00 0.00 35 1014.9
20260903223109 89 172 6.0 13.0 0.00 0.00 0.00 35 1015.0
20260903221607 88 124 5.0 14.0 0.00 0.00 0.00 36 1015.3
20260903220104 89 198 5.0 17.0 0.00 0.00 0.00 37 1015.3
20260903214603 89 94 4.0 11.0 0.00 0.00 0.00 37 1015.6
20260903213058 88 171 7.0 16.0 0.00 0.00 0.00 36 1015.7
20260903211612 90 109 6.0 11.0 0.00 0.00 0.00 34 1015.9
20260903210101 89 269 6.0 13.0 0.00 0.00 0.00 35 1016.1
20260903204602 88 130 3.0 14.0 0.00 0.00 0.00 35 1016.1
20260903203059 90 166 3.0 11.0 0.00 0.00 0.00 32 1016.1
20260903201606 90 184 4.0 11.0 0.00 0.00 0.00 33 1016.2
20260903200105 89 150 4.0 14.0 0.00 0.00 0.00 32 1016.4
20260903194559 89 146 7.0 14.0 0.00 0.00 0.00 33 1016.5
20260903193109 88 217 2.0 17.0 0.00 0.00 0.00 34 1016.6
20260903191605 88 173 2.0 14.0 0.00 0.00 0.00 33 1016.9
20260903190106 88 149 3.0 14.0 0.00 0.00 0.00 34 1017.2
20260903184607 87 150 5.0 12.0 0.00 0.00 0.00 34 1017.3
20260903183108 87 130 4.0 12.0 0.00 0.00 0.00 37 1017.5
20260903181605 86 121 5.0 18.0 0.00 0.00 0.00 35 1017.7
20260903180109 86 178 4.0 16.0 0.00 0.00 0.00 36 1017.9
20260903174611 85 164 3.0 12.0 0.00 0.00 0.00 38 1017.9
20260903173110 83 165 5.0 11.0 0.00 0.00 0.00 39 1017.9
20260903171605 82 98 3.0 10.0 0.00 0.00 0.00 42 1018.4
20260903170109 80 288 1.0 4.0 0.00 0.00 0.00 44 1018.3
20260903164608 79 14 2.0 5.0 0.00 0.00 0.00 42 1018.5
20260903163105 78 91 2.0 4.0 0.00 0.00 0.00 42 1018.6
20260903161607 78 65 1.0 4.0 0.00 0.00 0.00 44 1018.7
20260903160110 77 360 1.0 4.0 0.00 0.00 0.00 43 1018.7
20260903154607 77 53 1.0 4.0 0.00 0.00 0.00 41 1018.6
20260903153111 76 82 0.0 4.0 0.00 0.00 0.00 44 1018.7
20260903151603 75 23 1.0 2.0 0.00 0.00 0.00 42 1018.7
20260903150105 74 0 0.0 2.0 0.00 0.00 0.00 48 1018.8
20260903144601 74 0 1.0 3.0 0.00 0.00 0.00 53 1018.7
20260903143113 72 0 0.0 2.0 0.00 0.00 0.00 50 1018.6
20260903141614 69 0 0.0 0.0 0.00 0.00 0.00 55 1018.5
20260903140105 67 0 0.0 1.0 0.00 0.00 0.00 59 1018.4
20260903134610 65 0 0.0 1.0 0.00 0.00 0.00 61 1018.2
20260903133112 62 0 0.0 1.0 0.00 0.00 0.00 65 1017.9
20260903131605 61 290 0.0 1.0 0.00 0.00 0.00 65 1017.9
20260903130129 61 0 0.0 1.0 0.00 0.00 0.00 62 1017.7
20260903124612 62 0 0.0 0.0 0.00 0.00 0.00 61 1017.6
20260903123103 62 0 0.0 2.0 0.00 0.00 0.00 60 1017.6
20260903121602 64 244 0.0 1.0 0.00 0.00 0.00 59 1017.6
20260903120130 65 0 0.0 1.0 0.00 0.00 0.00 55 1017.3
20260903114606 67 0 0.0 2.0 0.00 0.00 0.00 52 1017.2